Altoona, PA

10:35 PM EDT on August 17, 2019 (GMT -0400)
Altoona-Blair County

Weather History for KAOO - May, 2019

Change the Weather History Date:

Wednesday, May 15, 2019

  Actual Average Record
Temperature  
Mean Temperature 54 °F 58 °F  
Max Temperature 68 °F 69 °F 90 °F (1962)
Min Temperature 39 °F 47 °F 35 °F (2001)
Degree Days  
Heating Degree Days 11 8  
Month to date heating degree days 95 144  
Since 1 July heating degree days 5649 6062  
Cooling Degree Days 0 1  
Month to date cooling degree days 8 5  
Year to date cooling degree days 8 11  
Growing Degree Days 2 (Base 50)    
Moisture  
Dew Point 41 °F    
Average Humidity 66    
Maximum Humidity 92    
Minimum Humidity 40    
Precipitation  
Precipitation T in 0.12 in 1.06 in (1978)
Month to date precipitation 3.98 1.76  
Year to date precipitation 16.79 12.23  
Sea Level Pressure  
Sea Level Pressure 29.95 in    
Wind  
Wind Speed 9 mph (West)    
Max Wind Speed 20 mph    
Max Gust Speed 26 mph    
Visibility 10 miles    
Events      
T = Trace of Precipitation, MM = Missing Value Source: NWS Daily Summary

Daily Weather History Graph

Daily Weather History Graph

Search for Another Location

Airport or City:

Astronomy

May. 15, 2019 Rise Set
Actual Time 5:57 AM EDT 8:22 PM EDT
Civil Twilight 5:26 AM EDT 8:53 PM EDT
Nautical Twilight 4:48 AM EDT 9:31 PM EDT
Astronomical Twilight 4:06 AM EDT 10:14 PM EDT
Moon 4:50 PM EDT (5/15) 4:23 AM EDT (5/15)
Length of Visible Light 15h 26m
Length of Day
14h 24m
Waxing Gibbous, 87% of the Moon is Illuminated
May 15
Waxing Gibbous
May 18
Full
May 26
Last Quarter
Jun 3
New
Jun 10
First Quarter

Hourly Weather History & Observations

Time (EDT) Temp. Windchill Dew Point Humidity Pressure Visibility Wind Dir Wind Speed Gust Speed Precip Events Conditions
12:53 AM 45.0 °F 41.8 °F 39.0 °F 80% 29.99 in 10.0 mi NW 5.8 mph - N/A   Clear
1:53 AM 42.1 °F 40.2 °F 37.9 °F 85% 29.98 in 10.0 mi WSW 3.5 mph - N/A   Partly Cloudy
2:53 AM 42.1 °F 37.7 °F 39.9 °F 92% 29.97 in 10.0 mi SSW 6.9 mph - N/A   Overcast
3:53 AM 42.1 °F 36.6 °F 39.0 °F 89% 29.97 in 10.0 mi SSW 9.2 mph - N/A   Mostly Cloudy
4:53 AM 41.0 °F 35.8 °F 37.9 °F 89% 29.97 in - SW 8.1 mph - N/A   Clear
5:53 AM 39.9 °F 34.5 °F 37.0 °F 89% 29.97 in - SSW 8.1 mph - N/A   Clear
6:53 AM 42.1 °F - 37.9 °F 85% 29.98 in 10.0 mi Calm Calm - N/A   Clear
7:53 AM 48.9 °F - 42.1 °F 77% 29.97 in 10.0 mi SSW 5.8 mph - N/A   Clear
8:53 AM 53.1 °F - 44.1 °F 71% 29.97 in 10.0 mi SSW 6.9 mph - N/A   Clear
9:53 AM 57.9 °F - 43.0 °F 58% 29.96 in 10.0 mi WNW 10.4 mph - N/A   Clear
10:53 AM 62.1 °F - 45.0 °F 53% 29.96 in 10.0 mi NW 9.2 mph - N/A   Clear
11:53 AM 64.9 °F - 43.0 °F 45% 29.96 in 10.0 mi NW 15.0 mph - N/A   Clear
12:53 PM 66.0 °F - 42.1 °F 42% 29.94 in 10.0 mi WNW 11.5 mph 26.5 mph N/A   Partly Cloudy
1:53 PM 64.0 °F - 39.9 °F 41% 29.94 in 10.0 mi WNW 15.0 mph - N/A   Mostly Cloudy
2:53 PM 64.0 °F - 42.1 °F 45% 29.93 in 10.0 mi West 13.8 mph - N/A   Scattered Clouds
3:53 PM 63.0 °F - 41.0 °F 45% 29.93 in 10.0 mi West 9.2 mph - N/A   Overcast
4:53 PM 63.0 °F - 41.0 °F 45% 29.92 in 10.0 mi West 16.1 mph - N/A   Overcast
5:53 PM 64.0 °F - 42.1 °F 45% 29.92 in 10.0 mi NW 8.1 mph - N/A   Overcast
6:53 PM 63.0 °F - 39.9 °F 43% 29.91 in 10.0 mi West 12.7 mph - N/A   Overcast
7:53 PM 59.0 °F - 43.0 °F 55% 29.91 in 10.0 mi West 6.9 mph - N/A   Clear
8:53 PM 55.9 °F - 41.0 °F 57% 29.92 in 10.0 mi WSW 6.9 mph - N/A   Clear
9:53 PM 57.0 °F - 39.9 °F 53% 29.92 in 10.0 mi WSW 9.2 mph - N/A   Clear
10:53 PM 57.0 °F - 41.0 °F 55% 29.92 in 10.0 mi WSW 10.4 mph - N/A   Scattered Clouds
11:53 PM 55.0 °F - 44.1 °F 67% 29.93 in 10.0 mi NNE 9.2 mph - N/A   Overcast